Location: Krakow
(50.0830°N, 19.9170°E)
Time: 18:21:48
(UTC+01:00)

SR - Pass Details

Date: 17 February 2023
Orbit: 582 x 867 km, 66.7° (Epoch: 20 March)

Event Time Altitude Azimuth Distance (km) Brightness Sun altitude
Rises 12:21:49 0° 246° (WSW) 3,106 ? 27.6°
Reaches altitude 10° 12:24:28 10° 256° (WSW) 2,139 ? 27.6°
Maximum altitude 12:28:46 31° 319° (NW) 1,145 ? 27.5°
Drops below altitude 10° 12:32:48 10° 23° (NNE) 2,005 ? 27.4°
Sets 12:35:13 0° 34° (NNE) 2,881 ? 27.3°
